GW4788 Weather Reports


time (UTC)temp
C
wind
direction
speed
KPH
gust
KPH
rain 1hr
cm
rain 24hr
cm
rain mn
cm
humidity
%
barometer
mb
20260505164518 22 235 4.8 14.5 0.00 0.00 0.00 59 1007.8
20260505163518 22 195 4.8 9.7 0.00 0.00 0.00 59 1007.6
20260505162518 21 205 3.2 8.0 0.00 0.00 0.00 60 1007.6
20260505161518 21 225 3.2 9.7 0.00 0.00 0.00 59 1007.9
20260505160519 22 211 4.8 12.9 0.00 0.00 0.00 59 1008.1
20260505152519 20 215 4.8 11.3 0.00 0.00 0.00 65 1007.7
20260505151520 20 200 3.2 8.0 0.00 0.00 0.00 66 1007.7
20260505150519 19 192 3.2 9.7 0.00 0.00 0.00 67 1007.6
20260505140519 17 181 3.2 8.0 0.00 0.00 0.00 78 1007.1
20260505124517 15 185 3.2 12.9 0.00 0.00 0.00 82 1007.3
20260505123517 15 202 3.2 9.7 0.00 0.00 0.00 82 1007.2
20260505122538 15 200 3.2 11.3 0.00 0.00 0.00 82 1007.1
20260505121518 15 194 4.8 9.7 0.00 0.00 0.00 82 1006.8
20260505120518 15 181 3.2 6.4 0.00 0.00 0.00 82 1006.5
20260505115518 15 188 3.2 9.7 0.00 0.00 0.00 83 1006.2
20260505114519 15 197 3.2 9.7 0.00 0.00 0.00 81 1006.4
20260505113518 15 182 3.2 9.7 0.00 0.00 0.00 81 1006.4
20260505112538 15 218 3.2 8.0 0.00 0.00 0.00 81 1006.6
20260505111518 15 193 3.2 6.4 0.00 0.00 0.00 80 1006.7
20260505110519 16 211 1.6 4.8 0.00 0.00 0.00 79 1006.9
20260505101516 16 233 3.2 4.8 0.00 0.00 0.00 73 1006.7
20260505100516 16 214 1.6 9.7 0.00 0.00 0.00 72 1006.8
20260505095519 17 179 1.6 6.4 0.00 0.00 0.00 72 1006.7
20260505094519 17 212 1.6 8.0 0.00 0.00 0.00 72 1006.6
20260505093519 17 191 1.6 9.7 0.00 0.00 0.00 72 1006.6
20260505092516 17 214 1.6 4.8 0.00 0.00 0.00 71 1006.4
20260505091520 17 215 1.6 6.4 0.00 0.00 0.00 70 1006.4
20260505090519 17 210 3.2 9.7 0.00 0.00 0.00 69 1006.4
20260505085520 17 210 3.2 8.0 0.00 0.00 0.00 68 1006.3
20260505084520 17 202 3.2 8.0 0.00 0.00 0.00 68 1006.2
20260505083517 17 193 1.6 8.0 0.00 0.00 0.00 67 1006.1
20260505082517 18 197 3.2 11.3 0.00 0.00 0.00 66 1005.8
20260505081520 18 195 4.8 11.3 0.00 0.00 0.00 65 1005.6
20260505080520 18 202 3.2 9.7 0.00 0.00 0.00 66 1005.4
20260505075517 18 244 4.8 12.9 0.00 0.00 0.00 65 1005.2
20260505074517 18 209 3.2 12.9 0.00 0.00 0.00 65 1005.0
20260505073518 18 211 4.8 14.5 0.00 0.00 0.00 65 1005.0
20260505072521 18 187 4.8 14.5 0.00 0.00 0.00 65 1005.1
20260505071521 18 175 3.2 9.7 0.00 0.00 0.00 66 1005.0
20260505070518 18 186 3.2 6.4 0.00 0.00 0.00 66 1005.0
20260505065518 18 184 3.2 11.3 0.00 0.00 0.00 67 1005.0
20260505064518 18 187 3.2 6.4 0.00 0.00 0.00 67 1004.9
20260505063519 18 181 3.2 12.9 0.00 0.00 0.00 67 1004.9
20260505062518 18 191 3.2 8.0 0.00 0.00 0.00 67 1004.9
20260505061516 18 173 3.2 8.0 0.00 0.00 0.00 66 1004.8
20260505060519 18 183 3.2 11.3 0.00 0.00 0.00 66 1004.9
20260505055519 18 188 3.2 9.7 0.00 0.00 0.00 66 1004.9
20260505054520 18 179 3.2 12.9 0.00 0.00 0.00 66 1004.9
20260505053519 18 172 3.2 9.7 0.00 0.00 0.00 65 1005.0
20260505052540 18 185 3.2 11.3 0.00 0.00 0.00 65 1005.2
20260505051520 18 182 4.8 11.3 0.00 0.00 0.00 65 1005.3
20260505050521 19 184 1.6 4.8 0.00 0.00 0.00 65 1005.4
20260505041520 20 188 3.2 9.7 0.00 0.00 0.00 63 1005.3
20260505040518 20 194 3.2 12.9 0.00 0.00 0.00 63 1005.4
20260505035518 20 216 3.2 12.9 0.00 0.00 0.00 63 1005.4
20260505034518 20 196 3.2 6.4 0.00 0.00 0.00 62 1005.3
20260505033518 20 182 1.6 6.4 0.00 0.00 0.00 63 1005.3
20260505032519 20 174 1.6 3.2 0.00 0.00 0.00 64 1005.3
20260505031539 19 188 3.2 9.7 0.00 0.00 0.00 64 1005.2
20260505030519 19 170 3.2 12.9 0.00 0.00 0.00 66 1005.2
20260505025519 19 167 1.6 4.8 0.00 0.00 0.00 67 1005.3
20260505024518 19 180 1.6 8.0 0.00 0.00 0.00 67 1005.2
20260505023539 19 153 1.6 6.4 0.00 0.00 0.00 67 1005.2
20260505022539 19 186 1.6 6.4 0.00 0.00 0.00 66 1005.3
20260505021519 20 170 1.6 8.0 0.00 0.00 0.00 65 1005.3
20260505020519 20 180 3.2 11.3 0.00 0.00 0.00 65 1005.1
20260505015520 20 178 3.2 9.7 0.00 0.00 0.00 65 1005.1
20260505014519 20 157 1.6 6.4 0.00 0.00 0.00 65 1005.0
20260505013520 20 180 1.6 4.8 0.00 0.00 0.00 64 1005.0
20260505012519 20 164 1.6 4.8 0.00 0.00 0.00 64 1004.9
20260505011520 20 162 1.6 4.8 0.00 0.00 0.00 63 1004.7
20260505010517 20 173 1.6 9.7 0.00 0.00 0.00 62 1004.7
20260505005519 20 168 1.6 4.8 0.00 0.00 0.00 61 1004.7
20260505004537 21 191 3.2 9.7 0.00 0.00 0.00 60 1004.7
20260505003557 21 185 1.6 6.4 0.00 0.00 0.00 59 1004.7
20260505002520 21 168 3.2 9.7 0.00 0.00 0.00 58 1004.7
20260505001521 21 167 3.2 8.0 0.00 0.00 0.00 58 1004.7
20260505000518 21 187 1.6 6.4 0.00 0.00 0.00 57 1004.6
20260504235518 22 184 1.6 6.4 0.00 0.00 0.00 56 1004.7
20260504234600 22 193 3.2 9.7 0.00 0.00 0.00 55 1004.9
20260504233558 22 187 3.2 8.0 0.00 0.00 0.00 54 1004.9
20260504232601 22 197 3.2 12.9 0.00 0.00 0.00 54 1004.8
20260504231518 22 193 3.2 11.3 0.00 0.00 0.00 56 1004.9
20260504230518 22 181 3.2 9.7 0.00 0.00 0.00 55 1005.0
20260504225538 22 185 3.2 8.0 0.00 0.00 0.00 55 1005.1
20260504224518 21 184 3.2 9.7 0.00 0.00 0.00 56 1005.4
20260504223519 21 227 3.2 8.0 0.00 0.00 0.00 56 1005.6
20260504222519 21 195 4.8 16.1 0.00 0.00 0.00 56 1005.6
20260504221519 21 197 3.2 9.7 0.00 0.00 0.00 57 1005.7
20260504220519 20 201 3.2 11.3 0.00 0.00 0.00 59 1005.7
20260504215519 20 188 3.2 9.7 0.00 0.00 0.00 60 1005.8
20260504214519 21 195 4.8 12.9 0.00 0.00 0.00 59 1006.0
20260504213536 21 186 4.8 11.3 0.00 0.00 0.00 57 1005.8
20260504212517 22 200 4.8 14.5 0.00 0.00 0.00 54 1005.9
20260504211519 22 210 3.2 9.7 0.00 0.00 0.00 54 1005.9
20260504210519 22 197 4.8 19.3 0.00 0.00 0.00 54 1005.5
20260504205520 21 224 4.8 12.9 0.00 0.00 0.00 56 1005.5
20260504204517 21 199 3.2 9.7 0.00 0.00 0.00 58 1005.8
20260504203520 21 217 3.2 12.9 0.00 0.00 0.00 59 1006.1
20260504202520 21 226 4.8 14.5 0.00 0.00 0.00 59 1006.5
20260504201541 22 192 4.8 12.9 0.00 0.00 0.00 57 1006.6
20260504200517 22 198 4.8 14.5 0.00 0.00 0.00 57 1006.9
20260504195518 22 193 4.8 14.5 0.00 0.00 0.00 56 1007.1
20260504194517 23 201 4.8 12.9 0.00 0.00 0.00 54 1006.8
20260504193523 23 215 4.8 12.9 0.00 0.00 0.00 53 1006.4
20260504192518 23 200 6.4 16.1 0.00 0.00 0.00 53 1006.6
20260504191518 23 221 4.8 12.9 0.00 0.00 0.00 53 1006.4
20260504190518 23 189 4.8 12.9 0.00 0.00 0.00 53 1006.2
20260504185518 23 214 3.2 12.9 0.00 0.00 0.00 53 1006.2
20260504184518 22 191 4.8 16.1 0.00 0.00 0.00 53 1006.3
20260504183518 22 186 4.8 16.1 0.00 0.00 0.00 54 1006.3
20260504182518 22 193 4.8 14.5 0.00 0.00 0.00 55 1006.5
20260504181518 22 199 4.8 11.3 0.00 0.00 0.00 55 1006.6
20260504180519 22 221 3.2 9.7 0.00 0.00 0.00 55 1006.6
20260504175519 21 181 3.2 8.0 0.00 0.00 0.00 55 1006.7
20260504174540 21 193 3.2 11.3 0.00 0.00 0.00 55 1006.9
20260504173519 22 188 4.8 14.5 0.00 0.00 0.00 55 1006.9
20260504172520 21 218 3.2 11.3 0.00 0.00 0.00 56 1006.7
20260504171520 21 205 3.2 14.5 0.00 0.00 0.00 56 1006.8
20260504170539 21 214 4.8 24.1 0.00 0.00 0.00 56 1007.0